Simultaneous Nadir Overpasses (SNOs) Predictions

Prediction of SNOs between AQUA and METOP-A Satellite Orbit:

Table of predicted SNOs for the next 14.0 days since TLE Epoch: 8/7/2020
Index Date (AQUA) Time (AQUA) Lat,Lon (AQUA) SZA (AQUA ) Date (METOP-A) Time (METOP-A) Lat,Lon (METOP-A) SZA (METOP-A ) Distance(km) Time Diff (sec)
1 08/08/2020 11:55:23 -76.16, 169.46 119.45 08/08/2020 11:54:14 -76.10, 167.49 119.35 52.93 69
2 08/08/2020 12:44:57 76.46, -23.88 60.92 08/08/2020 12:44:46 76.47, -23.91 60.93 1.32 11
3 08/08/2020 13:34:23 -76.49, 143.65 119.04 08/08/2020 13:35:27 -76.49, 143.50 119.04 3.93 64
4 08/11/2020 07:29:43 -76.35,-124.72 118.41 08/11/2020 07:28:31 -76.30,-125.49 118.39 21.12 72
5 08/11/2020 08:19:13 76.46, 42.55 61.73 08/11/2020 08:19:07 76.48, 42.47 61.76 2.92 6
6 08/11/2020 09:08:40 -76.53,-150.06 118.17 08/11/2020 09:09:48 -76.50,-150.10 118.21 3.36 68
7 08/14/2020 03:04:01 -76.44, -58.60 117.45 08/14/2020 03:02:49 -76.44, -58.62 117.43 0.46 72
8 08/14/2020 03:53:30 76.51, 108.81 62.64 08/14/2020 03:53:28 76.48, 108.85 62.62 3.21 2
9 08/14/2020 04:42:56 -76.53, -83.63 117.32 08/14/2020 04:44:09 -76.52, -83.71 117.35 2.93 73
10 08/16/2020 22:38:16 -76.45, 7.82 116.57 08/16/2020 22:37:09 -76.45, 7.77 116.54 1.37 67
11 08/16/2020 23:27:45 76.52, 175.22 63.53 08/16/2020 23:27:48 76.49, 175.22 63.50 3.50 3
12 08/17/2020 00:17:14 -76.68, -17.70 116.27 08/17/2020 00:18:25 -76.71, -16.66 116.33 26.89 71
13 08/19/2020 18:12:32 -76.46, 74.22 115.65 08/19/2020 18:11:30 -76.46, 74.15 115.63 1.83 62
14 08/19/2020 19:02:01 76.53,-118.39 64.45 08/19/2020 19:02:08 76.54,-118.24 64.44 3.93 7
